Regional Weather Roundup
Issued by NWS Green Bay, WI

Home | Current Version | Previous Version | Text Only | Print | Product List | Glossary On
Versions: 1 2 3 4 5 6 7 8 9 10 11 12 13 14 15 16 17 18 19 20 21 22 23 24 25 26 27 28 29 30 31 32 33 34 35 36 37 38 39 40 41 42 43 44 45 46 47 48 49 50
833
ASUS43 KGRB 271011
RWRGRB

NORTH-CENTRAL AND NORTHEAST WISCONSIN REGIONAL WEATHER ROUNDUP
NATIONAL WEATHER SERVICE GREEN BAY WI
500 AM CDT WED JUL 27 2016

WIZ005-009-010>012-018-019-271100-
NORTH CENTRAL WISCONSIN

CITY           SKY/WX    TMP DP  RH WIND       PRES   REMARKS
IRONWOOD       CLOUDY    66  66 100 CALM      29.96S
MANITOWISH WTR CLOUDY    64  64 100 CALM      29.99R
ARBOR VITAE    CLOUDY    63  62  95 CALM      29.99S
EAGLE RIVER    CLOUDY    61  61 100 CALM      29.99R
LAND O LAKES   CLOUDY    61  60  97 CALM      30.00S
RHINELANDER    MOCLDY    65  61  87 W5        30.00S
PHILLIPS       CLOUDY    64  63  97 SW5       29.99S
ANTIGO         PTCLDY    60  59  97 CALM      30.01R
TOMAHAWK       CLOUDY    60  59  96 CALM      30.00S FOG
MERRILL        PTCLDY    62  61  98 CALM      30.00S
$$

WIZ013-073-271100-
NORTHEAST WISCONSIN

CITY           SKY/WX    TMP DP  RH WIND       PRES   REMARKS
IRON MOUNTAIN  CLOUDY    65  61  87 SW5       29.94F
MARINETTE      PTCLDY   N/A N/A N/A CALM      29.96F
OCONTO         CLOUDY    70  70 100 CALM      29.95F
$$

WIZ017-030-035>037-045-271100-
CENTRAL WISCONSIN

CITY           SKY/WX    TMP DP  RH WIND       PRES   REMARKS
MEDFORD        CLOUDY    62  62 100 CALM      30.00S
WAUSAU         CLOUDY    67  64  90 CALM      29.98R
MOSINEE        CLOUDY    64  64 100 CALM      30.01S
MARSHFIELD     PTCLDY    68  65  90 CALM      30.00R
WISC RAPIDS    PTCLDY    66  63  90 CALM      30.01R
STEVENS POINT  CLEAR     65  65  98 CALM      30.01R
WAUPACA        PTCLDY    70  69  96 CALM      30.00R
SHAWANO        CLOUDY    69  65  86 CALM      29.99R
CLINTONVILLE   MOCLDY    68  64  88 CALM      29.98S
WAUTOMA        CLEAR     66  65  96 CALM      30.00R
$$

WIZ038-039-048-051-271100-
FOX VALLEY

CITY           SKY/WX    TMP DP  RH WIND       PRES   REMARKS
NWS GREEN BAY  CLEAR     68  68 100 CALM      29.98R
APPLETON       CLEAR     68  68 100 W6        29.98R
OSHKOSH        PTCLDY    72  66  81 W6        29.98R
FOND DU LAC    CLEAR     66  64  93 S6        29.99R
$$

WIZ022-050-052-271100-
EAST CENTRAL WISCONSIN

CITY           SKY/WX    TMP DP  RH WIND       PRES   REMARKS
EPHRAIM        FAIR      69  67  94 NW5       29.96S
WASHINGTON ISL NOT AVBL
STURGEON BAY   PTCLDY    71  66  84 N5        29.98S
MANITOWOC      PTCLDY    73  67  81 NW6       29.98R
SHEBOYGAN      CLEAR     69  65  86 W7        29.98S
$$

LMZ563-521-522-541>543-271100-
LAKESHORE

STATION/POSITION TIME  TEMP    WIND        PRES    VSBY  WAVE
                       AIR SEA DIR/SP/G                  HT/PER
                 (UTC) (F)     (DEG/KT/KT) (MB)    (MI)  (FT/S)
SHEBOYGAN LKSHOR 1000   72     230/  4/  5 1015.0R
KEWAUNEE LKSHORE 0900   74     300/  6/ 11 1014.0R
ALGOMA MARINA    0913           30/ 14/ 18   N/A
NORTHPORT PIER   0900   69     300/  8/ 12 1014.6F
N MID LAKE BUOY  0950   71 69  280/  6/ 10 1013.4F         2/ 5
SISTER BAY LKSHO 0906   72     350/ 11/ 12   N/A
CHAMBERS ISLAND  0940   72     310/  5/  8 1014.2F
MENOMINEE LKSHOR 0900   70     340/  9/ 10 1013.6S
$$




USA.gov is the U.S. government's official web portal to all federal, state and local government web resources and services.